Change the Weather History Date:

Thursday, October 18, 2012

  Actual Average Record
Temperature  
Mean Temperature 65 °F -  
Max Temperature 72 °F - - ()
Min Temperature 59 °F - - ()
Growing Degree Days 15 (Base 50)    
Moisture  
Dew Point 64 °F    
Average Humidity 93    
Maximum Humidity 100    
Minimum Humidity 83    
Precipitation  
Precipitation 1.38 in - - ()
Sea Level Pressure  
Sea Level Pressure 29.83 in    
Wind  
Wind Speed 6 mph (North)    
Max Wind Speed 16 mph    
Max Gust Speed 21 mph    
Visibility 6 miles    
Events Rain , Thunderstorm    
T = Trace of Precipitation, MM = Missing Value Source: NWS Daily Summary

Daily Weather History Graph

Daily Weather History Graph

Search for Another Location

Airport or City:

Trip Planner

Search our weather history database for the weather conditions in past years. The results will help you decide how hot, cold, wet, or windy it might be!

Date:

Astronomy

Oct. 18, 2012 Rise Set
Actual Time 6:50 AM CDT 6:10 PM CDT
Civil Twilight 6:26 AM CDT 6:35 PM CDT
Nautical Twilight 5:58 AM CDT 7:03 PM CDT
Astronomical Twilight 5:30 AM CDT 7:31 PM CDT
Moon 10:18 AM CDT (10/18) 8:58 PM CDT (10/18)
Length of Visible Light 12h 08m
Length of Day
11h 20m
Waxing Crescent, 14% of the Moon is Illuminated
Oct 18
Waxing Crescent
Oct 21
First Quarter
Oct 29
Full
Nov 6
Last Quarter
Nov 13
New

Hourly Weather History & Observations

Time (CDT) Temp. Dew Point Humidity Pressure Visibility Wind Dir Wind Speed Gust Speed Precip Events Conditions
12:55 AM 63.1 °F 59.0 °F 86% 29.83 in 10.0 mi Calm Calm - N/A   Clear
1:55 AM 59.9 °F 57.7 °F 93% 29.82 in 10.0 mi Calm Calm - N/A   Clear
2:55 AM 61.3 °F 58.3 °F 90% 29.81 in 10.0 mi South 3.5 mph - N/A   Clear
3:55 AM 63.9 °F 60.4 °F 89% 29.80 in 10.0 mi Calm Calm - N/A   Scattered Clouds
4:55 AM 65.7 °F 62.4 °F 89% 29.79 in 10.0 mi South 6.9 mph - N/A   Clear
5:55 AM 67.3 °F 64.0 °F 89% 29.79 in 10.0 mi South 8.1 mph - N/A   Clear
6:55 AM 70.2 °F 65.5 °F 85% 29.80 in 10.0 mi SSW 5.8 mph - N/A   Overcast
7:18 AM 71.6 °F 66.2 °F 83% 29.82 in 10.0 mi NNW 9.2 mph - N/A   Mostly Cloudy
7:39 AM 69.8 °F 64.4 °F 83% 29.83 in 9.0 mi North 13.8 mph 19.6 mph N/A Rain Light Rain
7:45 AM 68.0 °F 64.4 °F 88% 29.84 in 2.0 mi NNW 16.1 mph - N/A Rain Heavy Rain
7:46 AM 68.0 °F 64.4 °F 88% 29.83 in 1.5 mi North 15.0 mph - N/A Rain Heavy Rain
7:47 AM 68.0 °F 64.4 °F 88% 29.83 in 1.2 mi North 13.8 mph - N/A Rain Heavy Rain
7:48 AM 68.0 °F 64.4 °F 88% 29.82 in 1.0 mi North 12.7 mph - N/A Rain Heavy Rain
7:50 AM 66.2 °F 64.4 °F 94% 29.82 in 0.8 mi NNE 12.7 mph 20.7 mph N/A Rain Heavy Rain
7:52 AM 66.2 °F 64.4 °F 94% 29.83 in 1.0 mi North 12.7 mph 20.7 mph N/A Rain Rain
7:55 AM 66.4 °F 64.2 °F 93% 29.83 in 1.0 mi North 11.5 mph 20.7 mph 0.26 in Rain Light Rain
7:56 AM 66.2 °F 64.4 °F 94% 29.83 in 1.5 mi NNW 12.7 mph 20.7 mph N/A Rain Light Rain
7:58 AM 66.2 °F 64.4 °F 94% 29.83 in 2.5 mi North 10.4 mph 20.7 mph N/A Rain Light Rain
7:59 AM 66.2 °F 64.4 °F 94% 29.83 in 3.0 mi North 10.4 mph 20.7 mph N/A Rain Light Rain
8:02 AM 66.2 °F 64.4 °F 94% 29.84 in 2.5 mi North 8.1 mph - N/A Rain Heavy Rain
8:03 AM 66.2 °F 64.4 °F 94% 29.84 in 1.8 mi North 9.2 mph - N/A Rain Heavy Rain
8:04 AM 66.2 °F 64.4 °F 94% 29.84 in 1.2 mi North 8.1 mph - N/A Rain Heavy Rain
8:05 AM 66.2 °F 64.4 °F 94% 29.84 in 1.0 mi North 6.9 mph - N/A Rain Heavy Rain
8:12 AM 66.2 °F 64.4 °F 94% 29.84 in 1.2 mi North 3.5 mph - N/A Rain Light Rain
8:13 AM 66.2 °F 64.4 °F 94% 29.84 in 1.5 mi North 3.5 mph - N/A Rain Light Rain
8:14 AM 66.2 °F 64.4 °F 94% 29.84 in 2.0 mi North 3.5 mph - N/A Rain Light Rain
8:15 AM 66.2 °F 64.4 °F 94% 29.84 in 2.5 mi North 4.6 mph - N/A Rain Rain
8:16 AM 66.2 °F 64.4 °F 94% 29.84 in 3.0 mi North 4.6 mph - N/A Rain Rain
8:26 AM 66.2 °F 64.4 °F 94% 29.84 in 8.0 mi North 6.9 mph - N/A Rain Light Rain
8:31 AM 66.2 °F 64.4 °F 94% 29.84 in 10.0 mi NNW 5.8 mph - N/A   Light Drizzle
8:33 AM 66.2 °F 64.4 °F 94% 29.83 in 9.0 mi North 5.8 mph - N/A Rain Light Rain
8:55 AM 65.7 °F 63.9 °F 94% 29.83 in 5.0 mi NNE 4.6 mph - 0.26 in Rain Light Rain
9:30 AM 66.2 °F 64.4 °F 94% 29.83 in 2.5 mi NE 3.5 mph - N/A Rain Light Rain
9:41 AM 66.2 °F 64.4 °F 94% 29.85 in 3.0 mi NE 4.6 mph - N/A Rain Light Rain
9:55 AM 65.7 °F 63.9 °F 94% 29.85 in 7.0 mi NNE 5.8 mph - 0.13 in Rain Light Rain
10:15 AM 66.2 °F 62.6 °F 88% 29.86 in 1.5 mi NNE 3.5 mph - N/A Rain Heavy Rain
10:34 AM 64.4 °F 62.6 °F 94% 29.85 in 3.0 mi NE 6.9 mph - N/A Rain Light Rain
10:35 AM 64.4 °F 62.6 °F 94% 29.85 in 3.0 mi NE 6.9 mph - N/A Rain Light Rain
10:48 AM 64.4 °F 62.6 °F 94% 29.84 in 2.0 mi NE 5.8 mph - N/A Rain Rain
10:55 AM 64.0 °F 62.8 °F 96% 29.86 in 2.0 mi NE 5.8 mph - 0.35 in Rain Heavy Rain
11:02 AM 64.4 °F 62.6 °F 94% 29.85 in 1.2 mi ENE 5.8 mph - N/A Rain Heavy Rain
11:18 AM 64.4 °F 62.6 °F 94% 29.86 in 3.0 mi ENE 4.6 mph - N/A Rain , Thunderstorm Rain
11:40 AM 64.4 °F 62.6 °F 94% 29.86 in 3.0 mi East 5.8 mph - N/A Rain Light Rain
11:55 AM 63.9 °F 63.1 °F 97% 29.85 in 6.0 mi East 6.9 mph - 0.34 in Rain Light Rain
12:10 PM 64.4 °F 64.4 °F 100% 29.84 in 10.0 mi East 4.6 mph - N/A   Overcast
12:40 PM 66.2 °F 64.4 °F 94% 29.84 in 10.0 mi NNE 4.6 mph - N/A   Overcast
12:55 PM 65.8 °F 64.4 °F 95% 29.84 in 10.0 mi NE 4.6 mph - 0.00 in   Overcast
1:35 PM 66.2 °F 64.4 °F 94% 29.83 in 10.0 mi Variable 3.5 mph - N/A   Light Drizzle
1:55 PM 66.6 °F 64.9 °F 95% 29.83 in 10.0 mi SSE 5.8 mph - 0.00 in   Overcast
2:30 PM 68.0 °F 66.2 °F 94% 29.81 in 10.0 mi Variable 1.2 mph - N/A   Mostly Cloudy
2:42 PM 68.0 °F 66.2 °F 94% 29.82 in 6.0 mi NNW 6.9 mph - N/A Rain Light Rain Showers
2:55 PM 68.4 °F 66.6 °F 94% 29.83 in 10.0 mi North 4.6 mph - 0.01 in   Mostly Cloudy
3:00 PM 68.0 °F 66.2 °F 94% 29.82 in 10.0 mi North 3.5 mph - N/A   Overcast
3:15 PM 68.0 °F 66.2 °F 94% 29.82 in 6.0 mi North 6.9 mph - N/A Rain Light Rain Showers
3:23 PM 68.0 °F 66.2 °F 94% 29.83 in 3.0 mi NW 5.8 mph - N/A Rain Light Rain Showers
3:37 PM 68.0 °F 66.2 °F 94% 29.81 in 5.0 mi NNW 1.2 mph - N/A Rain Light Rain Showers
3:55 PM 67.8 °F 66.4 °F 95% 29.83 in 6.0 mi WNW 4.6 mph - 0.03 in Rain Light Rain Showers
4:13 PM 68.0 °F 66.2 °F 94% 29.82 in 10.0 mi Variable 1.2 mph - N/A   Mostly Cloudy
4:24 PM 68.0 °F 66.2 °F 94% 29.82 in 10.0 mi Calm Calm - N/A   Mostly Cloudy
4:55 PM 70.5 °F 65.7 °F 85% 29.82 in 10.0 mi Calm Calm - N/A   Scattered Clouds
5:55 PM 70.7 °F 65.7 °F 84% 29.82 in 10.0 mi Calm Calm - N/A   Scattered Clouds
6:55 PM 67.1 °F 65.5 °F 95% 29.83 in 10.0 mi Calm Calm - N/A   Scattered Clouds
7:55 PM 65.8 °F 65.5 °F 99% 29.86 in 6.0 mi Calm Calm - N/A   Partly Cloudy
8:55 PM 64.4 °F 64.2 °F 99% 29.87 in 6.0 mi Calm Calm - N/A   Partly Cloudy
9:55 PM 63.1 °F 63.0 °F 99% 29.88 in 6.0 mi Calm Calm - N/A   Partly Cloudy
10:55 PM 64.6 °F 64.2 °F 99% 29.88 in 6.0 mi West 5.8 mph - N/A   Partly Cloudy
11:55 PM 62.1 °F 61.5 °F 98% 29.88 in 10.0 mi NW 4.6 mph - N/A   Partly Cloudy